Lapse_Rate
6.2 6.0 5.3 4.7 3.9 3.7 3.9 4.6 6.8 5.8 4.9 4.6 4.5 4.0 3.6 3.9 3.4 1.8 1.7 2.1 3.4 3.3 2.9 2.4 1.6 1.7 2.6 2.8 3.3 2.8 4.0 3.3
6.6 5.9 5.5 5.3 5.0 4.9 5.5 5.8 4.4 5.3 5.4 5.2 4.9 4.7 4.5 3.9 4.0 2.9 2.3 2.5 2.9 2.9 2.4 1.6 1.8 2.6 3.2 3.5 3.4 3.0 3.5 1.7
6.7 6.5 5.7 5.1 5.0 4.6 5.7 6.2 4.9 4.4 3.3 2.1 2.3 3.1 2.5 2.7 2.7 3.7 3.4 3.6 3.1 3.9 2.4 1.9 2.2 2.3 3.5 3.8 3.3 3.2 5.5 3.6
7.2 6.9 6.8 6.3 5.7 4.0 5.0 5.8 6.2 5.0 4.5 4.6 4.2 3.7 3.6 3.4 3.5 3.2 3.4 3.5 3.6 3.6 3.9 2.5 2.5 2.6 2.6 2.9 3.3 4.5 5.4 3.4
7.2 6.9 6.4 6.1 5.5 5.0 4.8 5.2 6.1 6.6 5.7 4.8 5.5 4.6 5.2 5.1 5.1 5.0 4.8 4.3 4.2 3.8 3.6 3.9 3.4 3.3 3.0 2.9 3.1 4.0 5.1 3.9
7.2 7.0 7.0 7.0 6.3 6.0 5.6 5.1 5.7 6.0 5.7 5.4 5.1 4.8 4.1 4.4 4.3 4.7 4.8 4.2 4.4 4.5 4.5 4.5 4.1 3.6 4.1 3.4 3.3 4.3 4.9 4.6
8.2 7.7 7.2 7.1 6.8 6.3 6.1 6.1 5.6 5.4 5.2 5.0 5.2 5.1 4.8 4.2 4.0 3.7 3.8 4.1 4.4 3.7 3.9 4.5 4.8 4.3 3.8 3.5 3.4 3.9 4.1 3.9
8.0 7.9 6.8 6.3 5.6 5.3 5.3 5.2 4.8 4.4 4.6 5.5 5.4 5.3 5.5 6.0 5.9 5.2 5.7 4.3 4.0 4.0 3.4 3.4 3.6 4.1 3.6 3.8 4.3 4.4 4.4 4.3
8.0 7.0 6.0 5.7 5.3 5.4 4.8 4.8 4.6 4.1 4.3 4.7 6.1 6.1 5.2 4.7 5.7 6.3 5.9 5.4 5.2 5.1 4.5 4.4 4.4 3.7 4.1 4.3 4.1 4.3 4.7 4.4
7.3 5.9 5.8 5.8 5.8 5.8 6.0 5.6 5.9 6.1 6.1 5.1 5.7 6.1 5.3 5.5 5.5 5.2 5.9 6.4 6.2 5.9 6.4 5.9 5.8 4.0 3.9 5.0 4.1 4.7 4.6 4.5
6.1 6.3 6.8 7.7 7.8 6.8 6.1 5.6 5.6 6.2 5.5 6.1 6.2 5.8 4.9 4.6 5.2 5.1 5.2 5.7 5.9 6.8 6.5 6.1 5.7 6.4 4.2 4.0 5.0 4.6 4.5 4.3
8.0 8.2 8.6 8.8 8.9 8.9 8.3 7.4 6.6 6.2 5.4 6.0 4.9 4.5 4.9 3.5 4.5 5.2 5.5 5.5 5.2 5.9 7.0 7.1 6.1 6.2 5.8 5.4 4.9 4.5 4.7 4.5
8.1 8.4 8.5 8.6 8.7 8.6 8.1 7.7 7.7 6.9 6.0 5.9 5.6 4.6 3.5 2.9 2.5 2.2 2.9 3.3 3.7 4.4 5.0 5.0 7.5 7.1 6.2 5.9 5.4 5.3 5.1 4.2
8.2 8.3 8.4 8.4 8.3 8.3 7.3 7.4 6.6 6.8 5.0 4.9 4.1 3.4 3.3 2.6 2.8 1.9 2.0 2.1 2.8 3.3 4.0 4.6 4.5 5.4 6.3 5.3 6.4 6.0 5.3 4.9
8.2 8.2 8.3 8.2 8.6 7.8 6.9 6.3 6.7 6.9 6.2 6.0 3.8 2.9 1.8 1.2 1.1 1.1 1.3 1.7 1.9 2.3 1.7 1.8 2.1 2.8 3.9 5.6 5.5 5.3 5.7 5.4
8.0 8.1 8.3 8.2 8.4 7.5 5.4 5.5 7.1 7.1 5.9 5.4 3.4 1.6 2.0 1.6 1.3 1.1 1.2 1.6 2.3 2.6 2.7 3.1 3.2 3.8 4.1 4.3 5.6 5.4 5.0 4.8
8.1 8.2 8.3 8.2 7.9 6.4 5.3 6.2 7.3 6.3 4.9 4.1 2.2 1.8 1.9 1.6 1.0 1.0 1.4 2.1 2.7 3.2 3.4 3.3 3.4 4.0 3.3 2.6 3.5 5.4 5.7 5.1
7.9 8.2 8.2 8.2 7.4 5.7 6.2 6.0 5.5 4.1 3.9 2.9 2.6 2.2 2.0 1.9 2.1 2.3 2.8 3.1 2.9 3.0 3.9 4.3 4.6 4.2 4.7 4.3 2.4 4.5 5.9 5.2
8.0 8.2 8.2 8.2 7.0 4.9 6.6 5.7 5.1 4.2 3.1 3.3 3.0 2.6 2.6 2.9 3.0 2.7 2.2 2.7 3.0 3.3 3.7 4.0 4.5 4.1 4.3 5.3 4.2 4.5 5.0 5.6
Wind_Speed
13 15 16 16 15 14 10 4 11 9 7 8 7 7 8 8 8 8 14 15 18 11 8 9 12 10 11 10 11 8 4 5
11 13 14 16 17 18 17 14 13 7 3 4 6 7 6 6 6 8 11 12 12 9 7 9 11 12 15 15 12 15 9 12
15 16 17 16 15 15 15 14 10 7 7 4 3 2 2 1 3 3 7 9 11 10 9 10 11 9 13 14 16 11 6 12
15 17 17 17 18 15 14 14 11 8 7 3 3 3 3 2 2 1 2 4 9 11 12 11 12 12 12 17 17 17 9 11
14 16 16 15 14 13 15 13 12 10 8 5 4 2 1 2 1 2 3 4 6 7 10 12 13 10 12 14 14 14 11 14
13 14 15 15 14 13 13 15 15 13 11 7 4 4 2 2 2 5 4 4 6 7 8 12 12 11 13 16 16 16 12 13
14 14 14 13 14 14 14 14 13 13 12 10 7 6 5 4 4 3 3 1 6 5 7 9 11 11 11 12 16 18 15 16
13 14 15 15 16 16 14 15 16 14 12 13 10 8 7 8 7 5 7 3 5 6 8 8 8 10 13 15 17 19 18 16
13 14 15 16 17 17 17 18 18 16 14 12 11 11 5 4 6 7 6 5 6 8 8 10 12 11 10 11 10 12 17 16
13 14 14 15 16 17 18 18 19 17 14 9 9 9 7 7 6 6 7 8 9 8 12 12 15 14 14 12 10 13 12 15
15 15 16 16 16 15 18 19 20 16 14 10 8 7 5 6 6 7 7 9 8 9 11 14 14 15 14 14 9 12 13 12
14 15 15 16 15 15 19 19 19 16 13 11 6 6 7 6 6 7 7 8 6 6 10 13 11 14 13 15 15 14 14 13
14 15 15 17 17 16 16 18 17 15 12 8 4 4 4 4 4 5 8 8 8 8 8 8 13 12 12 15 15 16 19 20
14 14 16 17 16 16 14 17 14 13 9 3 3 5 7 7 7 7 9 9 9 8 9 11 8 9 12 12 17 17 19 19
13 15 15 14 16 14 15 15 12 10 3 4 4 5 6 8 8 9 9 9 9 8 7 7 9 8 9 11 13 16 16 16
14 16 17 15 18 15 16 16 14 6 1 2 5 5 7 9 9 10 11 10 9 9 10 10 9 10 8 9 13 13 15 15
17 18 19 18 16 16 17 16 8 2 4 5 4 6 7 8 8 9 9 9 11 12 12 12 12 9 12 13 13 13 16 17
18 18 17 15 16 17 19 7 3 7 6 3 6 8 9 10 8 7 7 9 8 10 10 10 12 12 15 17 16 11 12 13
17 16 16 15 14 17 17 8 4 6 6 7 9 8 6 7 7 6 6 6 8 8 9 10 10 10 15 18 17 13 11 11
Wind_Direction
12 14 11 9 7 8 7 285 248 234 220 216 210 212 202 211 198 202 187 192 188 183 189 174 155 156 161 152 148 136 127 131
25 19 16 13 17 15 23 29 22 355 230 228 220 213 213 201 206 219 205 197 197 181 175 160 163 169 174 170 162 150 145 131
24 25 21 17 17 13 14 25 24 51 41 353 357 12 54 23 124 196 190 186 183 190 171 170 166 162 180 179 168 162 158 178
24 20 19 16 14 6 7 9 13 4 17 80 56 31 360 28 335 132 234 196 199 201 183 174 177 175 179 180 182 178 179 189
23 16 10 10 3 360 360 358 9 2 358 342 22 149 83 241 248 319 275 221 219 210 190 176 182 183 182 183 186 185 175 180
14 9 5 0 354 350 347 347 346 346 349 346 338 318 347 265 232 250 315 263 234 223 208 207 195 195 187 182 185 189 184 172
2 352 346 344 342 338 338 339 330 334 337 327 310 294 285 272 274 261 208 215 251 244 217 213 205 184 184 187 189 186 176 188
344 341 343 339 336 333 331 329 323 329 325 321 313 299 283 277 271 255 236 192 216 233 203 214 204 196 184 183 186 191 189 189
339 336 333 331 329 328 329 324 316 318 314 307 306 298 288 269 281 289 265 234 223 221 191 215 219 193 189 191 195 198 192 196
325 324 320 316 313 316 319 316 308 311 305 301 285 285 307 312 314 289 287 283 251 206 216 215 229 190 178 208 193 199 200 197
319 320 319 318 316 313 317 310 302 299 299 288 280 298 308 323 320 306 302 278 273 248 233 228 222 221 180 181 202 208 204 198
313 313 313 313 308 306 314 310 304 300 299 294 316 314 330 345 321 322 312 301 315 326 283 246 228 229 207 193 191 186 196 204
301 308 313 316 317 311 313 303 301 299 297 283 308 351 343 322 319 321 311 307 330 321 302 306 269 225 216 212 205 199 198 193
316 317 320 320 316 315 313 307 293 297 292 282 33 6 345 336 341 329 329 339 326 315 310 301 293 283 233 224 219 209 202 204
319 323 321 314 316 312 317 307 293 302 323 324 12 9 357 357 348 341 344 338 324 318 307 290 287 279 273 232 226 222 213 203
323 320 323 316 321 314 323 307 297 302 273 357 15 13 3 1 352 348 344 337 324 311 300 295 282 278 269 259 232 225 215 201
326 321 327 324 325 324 310 297 303 122 69 34 14 20 14 6 1 349 335 325 323 320 317 309 297 284 277 264 258 231 215 205
322 321 328 328 328 324 318 323 80 69 62 36 29 26 19 10 351 340 326 317 307 308 303 297 291 287 271 262 251 255 230 208
323 324 330 334 337 332 342 355 52 72 56 33 26 12 3 353 341 331 316 311 311 309 302 298 293 291 277 265 249 253 252 208